Weather History for Yeovilton, United Kingdom

Change the Weather History Date:

Monday, December 31, 2012

  Actual Average Record
Temperature  
Mean Temperature 49 °F -  
Max Temperature 52 °F 45 °F 55 °F (2006)
Min Temperature 46 °F 34 °F 19 °F (2001)
Degree Days  
Heating Degree Days 16    
Moisture  
Dew Point 48 °F    
Average Humidity 89    
Maximum Humidity 94    
Minimum Humidity 73    
Precipitation  
Precipitation 0.55 in - - ()
Sea Level Pressure  
Sea Level Pressure 29.59 in    
Wind  
Wind Speed 16 mph ()    
Max Wind Speed 28 mph    
Max Gust Speed 43 mph    
Visibility 5.9 miles    
Events Rain    
Averages and records for this station are not official NWS values.
T = Trace of Precipitation, MM = Missing Value Source: Averaged Metar Reports

Daily Weather History Graph

Daily Weather History Graph

Search for Another Location

Airport:

Trip Planner

Search our weather history database for the weather conditions in past years. The results will help you decide how hot, cold, wet, or windy it might be!

Date:

Astronomy

Dec. 31, 2012 Rise Set
Actual Time 8:13 AM GMT 4:13 PM GMT
Civil Twilight 7:34 AM GMT 4:53 PM GMT
Nautical Twilight 6:52 AM GMT 5:35 PM GMT
Astronomical Twilight 6:11 AM GMT 6:15 PM GMT
Moon 7:53 PM GMT (12/31) 9:26 AM GMT (12/31)
Length of Visible Light 9h 18m
Length of Day
8h 00m
Waning Gibbous, 91% of the Moon is Illuminated
Dec 31
Waning Gibbous
Jan 5
Last Quarter
Jan 11
New
Jan 18
First Quarter
Jan 27
Full

Hourly Weather History & Observations

Time (GMT) Temp. Windchill Dew Point Humidity Pressure Visibility Wind Dir Wind Speed Gust Speed Precip Events Conditions
12:50 AM 51.8 °F - 46.4 °F 82% 29.83 in 6.2 mi SW 16.1 mph - N/A   Scattered Clouds
1:50 AM 51.8 °F - 48.2 °F 88% 29.80 in 6.2 mi SW 21.9 mph 34.5 mph N/A Rain Light Rain
2:50 AM 53 °F - 47 °F 73% 29.79 in 12 mi SW 24.2 mph - - Rain Rain
2:50 AM 51.8 °F - 46.4 °F 82% 29.77 in 6.2 mi SW 24.2 mph 36.8 mph N/A   Mostly Cloudy
3:50 AM 51.8 °F - 48.2 °F 88% 29.77 in 6.2 mi SW 19.6 mph 34.5 mph N/A   Mostly Cloudy
4:50 AM 51.8 °F - 48.2 °F 88% 29.71 in 3.7 mi SSW 23.0 mph - N/A   Haze
5:50 AM 51 °F - 49 °F 90% 29.70 in 3 mi SSW 19.6 mph - - Rain Rain Showers
5:50 AM 51.8 °F - 48.2 °F 88% 29.68 in - SSW 19.6 mph - N/A Rain Rain Showers
6:50 AM 51.8 °F - 50.0 °F 94% 29.65 in - SSW 21.9 mph - N/A Rain Rain Showers
7:50 AM 51.8 °F - 48.2 °F 88% 29.62 in 6.2 mi SSW 27.6 mph 42.6 mph N/A   Mostly Cloudy
8:50 AM 52 °F - 49 °F 84% 29.62 in 10 mi SSW 25.3 mph - - Rain Rain
8:50 AM 51.8 °F - 48.2 °F 88% 29.62 in 6.2 mi SSW 25.3 mph 40.3 mph N/A   Mostly Cloudy
9:50 AM 51.8 °F - 50.0 °F 94% 29.59 in 5.0 mi SSW 26.5 mph 39.1 mph N/A Rain Light Rain Showers
10:50 AM 51.8 °F - 50.0 °F 94% 29.56 in 4.3 mi SSW 24.2 mph 35.7 mph N/A Rain Rain
11:50 AM 52 °F - 50 °F 89% 29.55 in 3 mi SSW 23.0 mph - - Rain Rain
11:50 AM 51.8 °F - 50.0 °F 94% 29.53 in 3.1 mi SSW 23.0 mph - N/A Rain Rain
12:50 PM 51.8 °F - 50.0 °F 94% 29.47 in - SW 13.8 mph - N/A Rain Heavy Rain
1:50 PM 51.8 °F - 50.0 °F 94% 29.47 in 6.2 mi WSW 8.1 mph - N/A Rain Light Rain
2:50 PM 51 °F - 47 °F 83% 29.49 in 31 mi SW 8.1 mph - - Rain Rain
2:50 PM 50.0 °F - 48.2 °F 94% 29.47 in 6.2 mi SW 8.1 mph - N/A   Mostly Cloudy
3:50 PM 50.0 °F - 48.2 °F 94% 29.47 in 6.2 mi SSW 10.4 mph - N/A   Mostly Cloudy
4:50 PM 50.0 °F - 48.2 °F 94% 29.50 in 1.7 mi SW 9.2 mph - N/A Rain Light Rain Showers
5:50 PM 49 °F - 47 °F 92% 29.51 in 22 mi WSW 6.9 mph - - Rain Rain
5:50 PM 50.0 °F - 48.2 °F 94% 29.50 in 6.2 mi WSW 6.9 mph - N/A   Partly Cloudy
6:50 PM 50.0 °F - 46.4 °F 87% 29.50 in 6.2 mi WSW 10.4 mph - N/A   Scattered Clouds
7:50 PM 48.2 °F - 44.6 °F 87% 29.50 in 6.2 mi WSW 8.1 mph - N/A   Scattered Clouds
8:50 PM 49 °F - 45 °F 83% 29.52 in 9 mi SW 9.2 mph - -   Scattered Clouds
8:50 PM 48.2 °F - 44.6 °F 87% 29.50 in 6.2 mi SW 9.2 mph - N/A   Scattered Clouds
9:50 PM 48.2 °F - 46.4 °F 93% 29.53 in 6.2 mi SW 5.8 mph - N/A   Mostly Cloudy
10:50 PM 46.4 °F 40.1 °F 44.6 °F 93% 29.56 in 6.2 mi WNW 15.0 mph - N/A   Scattered Clouds
11:50 PM 46 °F - 43 °F 84% 29.58 in 31 mi West 12.7 mph - -   Scattered Clouds
11:50 PM 46.4 °F 40.7 °F 42.8 °F 87% 29.56 in 6.2 mi West 12.7 mph - N/A   Mostly Cloudy